SVFLIR Weather Reports


Display with metric or nautical units.
time (UTC)temp
F
wind
direction
speed
MPH
gust
MPH
rain 1hr
in
rain 24hr
in
rain mn
in
humidity
%
barometer
mb
20260903141228 76 70 0.0 0.0 0.00 0.00 0.00 100 1009.4
20260903140723 76 70 0.0 1.0 0.00 0.00 0.00 100 1009.4
20260903140222 74 70 0.0 1.0 0.00 0.00 0.00 100 1009.4
20260903135720 75 70 0.0 1.0 0.00 0.00 0.00 100 1009.4
20260903135437 74 270 0.0 0.0 0.00 0.00 0.00 100 1009.4
20260903134709 73 270 0.0 0.0 0.00 0.00 0.00 100 1009.4
20260903134152 72 270 0.0 2.0 0.00 0.00 0.00 100 1009.4
20260903133647 71 270 0.0 2.0 0.00 0.00 0.00 100 1009.4
20260903133122 73 113 0.0 4.0 0.00 0.00 0.00 100 1009.4
20260903132615 73 104 2.0 4.0 0.00 0.00 0.00 100 1009.4
20260903132115 72 104 2.0 4.0 0.00 0.00 0.00 100 1009.4
20260903131614 71 104 3.0 4.0 0.00 0.00 0.00 100 1009.4
20260903131113 71 119 4.0 4.0 0.00 0.00 0.00 100 1009.4
20260903130612 70 21 0.0 1.0 0.00 0.00 0.00 100 1009.4
20260903130112 70 21 0.0 0.0 0.00 0.00 0.00 100 1009.4
20260903125555 70 21 0.0 0.0 0.00 0.00 0.00 100 1009.4
20260903125051 70 21 0.0 0.0 0.00 0.00 0.00 100 1009.4
20260903124539 71 21 0.0 0.0 0.00 0.00 0.00 100 1009.4
20260903124039 71 21 0.0 0.0 0.00 0.00 0.00 100 1009.4
20260903123530 72 21 0.0 3.0 0.00 0.00 0.00 100 1009.4
20260903123224 72 21 0.0 5.0 0.00 0.00 0.00 100 1009.4
20260903122454 73 21 0.0 5.0 0.00 0.00 0.00 100 1009.4
20260903121944 73 112 0.0 0.0 0.00 0.00 0.00 100 1009.4
20260903121429 74 112 0.0 0.0 0.00 0.00 0.00 100 1009.4
20260903120924 75 112 0.0 0.0 0.00 0.00 0.00 100 1009.4
20260903120414 74 112 0.0 0.0 0.00 0.00 0.00 100 1009.4
20260903115855 75 112 0.0 5.0 0.00 0.00 0.00 100 1009.4
20260903115343 76 112 0.0 9.0 0.00 0.00 0.00 100 1009.4
20260903114843 76 23 2.0 9.0 0.00 0.00 0.00 100 1009.4
20260903114324 76 258 2.0 7.0 0.00 0.00 0.00 100 1009.4
20260903114047 76 177 0.0 5.0 0.00 0.00 0.00 100 1009.4
20260903113311 76 329 1.0 9.0 0.00 0.00 0.00 100 1009.4
20260903112802 77 288 1.0 9.0 0.00 0.00 0.00 100 1009.4
20260903112305 76 265 5.0 12.0 0.00 0.00 0.00 100 1009.4
20260903112026 77 285 7.0 13.0 0.00 0.00 0.00 100 1009.4
20260903111300 77 265 9.0 13.0 0.00 0.00 0.00 100 1009.4
20260903111017 77 261 9.0 13.0 0.00 0.00 0.00 100 1009.4
20260903110259 77 244 9.0 13.0 0.00 0.00 0.00 100 1009.4
20260903105759 77 264 9.0 14.0 0.00 0.00 0.00 100 1009.4
20260903105258 78 257 10.0 14.0 0.00 0.00 0.00 100 1009.4
20260903104758 77 246 10.0 13.0 0.00 0.00 0.00 100 1009.4
20260903104257 78 247 9.0 13.0 0.00 0.00 0.00 100 1009.4
20260903103255 78 254 10.0 15.0 0.00 0.00 0.00 100 1009.4
20260903102754 78 250 11.0 17.0 0.00 0.00 0.00 100 1009.4
20260903102255 78 257 10.0 17.0 0.00 0.00 0.00 100 1009.4
20260903101754 78 262 10.0 16.0 0.00 0.00 0.00 100 1009.4
20260903101253 78 258 11.0 17.0 0.00 0.00 0.00 100 1009.4
20260903100752 78 261 11.0 17.0 0.00 0.00 0.00 100 1009.4
20260903100252 78 250 11.0 14.0 0.00 0.00 0.00 100 1009.4
20260903095751 78 250 9.0 11.0 0.00 0.00 0.00 100 1009.4
20260903095508 77 267 7.0 9.0 0.00 0.00 0.00 100 1009.4
20260903095012 76 265 6.0 8.0 0.00 0.00 0.00 100 1009.4
20260903094250 76 246 6.0 8.0 0.00 0.00 0.00 100 1009.4
20260903093749 73 250 6.0 7.0 0.00 0.00 0.00 100 1009.4
20260903093248 70 247 2.0 6.0 0.00 0.00 0.00 100 1009.4
20260903092748 69 142 0.0 0.0 0.00 0.00 0.00 100 1009.4
20260903092225 70 142 0.0 0.0 0.00 0.00 0.00 100 1009.4
20260903091658 70 142 0.0 0.0 0.00 0.00 0.00 100 1009.4
20260903091130 72 142 0.0 0.0 0.00 0.00 0.00 100 1009.4
20260903090624 72 142 0.0 0.0 0.00 0.00 0.00 100 1009.4
20260903090344 72 142 0.0 0.0 0.00 0.00 0.00 100 1009.4
20260903085619 72 142 0.0 0.0 0.00 0.00 0.00 100 1009.4
20260903085116 73 142 0.0 0.0 0.00 0.00 0.00 100 1009.4
20260903084836 74 142 0.0 0.0 0.00 0.00 0.00 100 1009.4
20260903084109 72 142 0.0 0.0 0.00 0.00 0.00 100 1009.4
20260903083821 66 142 0.0 0.0 0.00 0.00 0.00 100 1009.4
20260903083047 71 142 0.0 0.0 0.00 0.00 0.00 100 1009.4
20260903082532 71 142 0.0 0.0 0.00 0.00 0.00 100 1009.4
20260903082015 71 142 0.0 0.0 0.00 0.00 0.00 100 1009.4
20260903081500 75 142 0.0 0.0 0.00 0.00 0.00 100 1009.4
20260903081023 74 142 0.0 0.0 0.00 0.00 0.00 100 1009.4
20260903080450 70 142 0.0 0.0 0.00 0.00 0.00 100 1009.4
20260903075957 72 142 0.0 0.0 0.00 0.00 0.00 100 1009.4
20260903075703 75 142 0.0 0.0 0.00 0.00 0.00 100 1009.4
20260903075157 75 142 0.0 0.0 0.00 0.00 0.00 100 1009.4
20260903074419 77 142 0.0 4.0 0.00 0.00 0.00 100 1009.4
20260903073908 75 142 0.0 4.0 0.00 0.00 0.00 100 1009.4
20260903073405 76 149 3.0 4.0 0.00 0.00 0.00 100 1009.4
20260903072904 75 127 3.0 4.0 0.00 0.00 0.00 100 1009.4
20260903072627 76 28 0.0 0.0 0.00 0.00 0.00 100 1009.4
20260903071853 76 28 0.0 0.0 0.00 0.00 0.00 100 1009.4
20260903071344 76 28 0.0 0.0 0.00 0.00 0.00 100 1009.4
20260903070830 77 28 0.0 0.0 0.00 0.00 0.00 100 1009.4
20260903070319 71 28 0.0 0.0 0.00 0.00 0.00 100 1009.4
20260903065812 71 28 0.0 0.0 0.00 0.00 0.00 100 1009.4
20260903065255 74 28 0.0 0.0 0.00 0.00 0.00 100 1009.4
20260903064751 75 28 0.0 0.0 0.00 0.00 0.00 100 1009.4
20260903064246 76 28 0.0 0.0 0.00 0.00 0.00 100 1009.4
20260903063735 76 28 0.0 0.0 0.00 0.00 0.00 100 1009.4
20260903063230 78 28 0.0 0.0 0.00 0.00 0.00 100 1009.4
20260903062713 80 28 0.0 4.0 0.00 0.00 0.00 100 1009.4
20260903062146 80 28 1.0 4.0 0.00 0.00 0.00 100 1009.4
20260903061643 83 240 0.0 2.0 0.00 0.00 0.00 100 1009.4
20260903061139 85 240 0.0 4.0 0.00 0.00 0.00 100 1009.4
20260903060628 85 240 0.0 6.0 0.00 0.00 0.00 100 1009.4
20260903060116 85 251 3.0 6.0 0.00 0.00 0.00 100 1009.4
20260903055615 85 261 2.0 6.0 0.00 0.00 0.00 100 1009.4
20260903055114 85 268 4.0 7.0 0.00 0.00 0.00 100 1009.4
20260903054614 85 289 5.0 7.0 0.00 0.00 0.00 100 1009.4
20260903053613 86 271 5.0 8.0 0.00 0.00 0.00 100 1009.4
20260903053112 85 268 5.0 6.0 0.00 0.00 0.00 100 1009.4
20260903052611 85 282 5.0 6.0 0.00 0.00 0.00 100 1009.4
20260903052110 85 296 5.0 6.0 0.00 0.00 0.00 100 1009.4
20260903051609 85 274 4.0 5.0 0.00 0.00 0.00 100 1009.4
20260903051109 85 298 4.0 5.0 0.00 0.00 0.00 100 1009.4
20260903050609 85 260 1.0 4.0 0.00 0.00 0.00 100 1009.4
20260903050104 86 289 0.0 6.0 0.00 0.00 0.00 100 1009.4
20260903045603 86 289 0.0 6.0 0.00 0.00 0.00 100 1009.4
20260903045324 85 278 4.0 6.0 0.00 0.00 0.00 100 1009.4
20260903044600 83 278 0.0 0.0 0.00 0.00 0.00 100 1009.4
20260903044312 84 278 0.0 0.0 0.00 0.00 0.00 100 1009.4
20260903043546 84 278 0.0 0.0 0.00 0.00 0.00 100 1009.4
20260903043036 85 278 0.0 0.0 0.00 0.00 0.00 100 1009.4
20260903042527 86 278 0.0 0.0 0.00 0.00 0.00 100 1009.4
20260903042017 84 278 0.0 0.0 0.00 0.00 0.00 100 1009.4
20260903041451 86 278 0.0 0.0 0.00 0.00 0.00 100 1009.4
20260903040947 86 278 0.0 3.0 0.00 0.00 0.00 100 1009.4
20260903040445 86 278 0.0 4.0 0.00 0.00 0.00 100 1009.4
20260903035942 87 278 0.0 4.0 0.00 0.00 0.00 100 1009.4
20260903035434 88 285 3.0 5.0 0.00 0.00 0.00 100 1009.4
20260903034933 88 286 4.0 6.0 0.00 0.00 0.00 100 1009.4
20260903034434 88 275 0.0 7.0 0.00 0.00 0.00 100 1009.4
20260903033933 88 268 4.0 7.0 0.00 0.00 0.00 100 1009.4
20260903033432 89 275 5.0 11.0 0.00 0.00 0.00 100 1009.4
20260903032932 90 270 5.0 11.0 0.00 0.00 0.00 100 1009.4
20260903032431 90 271 5.0 11.0 0.00 0.00 0.00 100 1009.4
20260903031930 91 278 5.0 11.0 0.00 0.00 0.00 100 1009.4
20260903031430 91 271 7.0 11.0 0.00 0.00 0.00 100 1009.4
20260903030929 91 253 7.0 11.0 0.00 0.00 0.00 100 1009.4
20260903030428 92 254 7.0 11.0 0.00 0.00 0.00 100 1009.4
20260903025929 91 250 7.0 11.0 0.00 0.00 0.00 100 1009.4
20260903025427 91 272 7.0 11.0 0.00 0.00 0.00 100 1009.4
20260903024926 91 258 9.0 11.0 0.00 0.00 0.00 100 1009.4
20260903024427 91 277 4.0 8.0 0.00 0.00 0.00 100 1009.4
20260903024142 91 258 3.0 11.0 0.00 0.00 0.00 100 1009.4
20260903023425 91 291 6.0 11.0 0.00 0.00 0.00 100 1009.4
20260903023147 92 248 8.0 11.0 0.00 0.00 0.00 100 1009.4
20260903022424 92 255 7.0 11.0 0.00 0.00 0.00 100 1009.4
20260903021923 93 251 5.0 14.0 0.00 0.00 0.00 100 1009.4
20260903021639 93 262 8.0 14.0 0.00 0.00 0.00 100 1009.4
20260903020922 93 260 10.0 13.0 0.00 0.00 0.00 100 1009.4
20260903020422 92 234 6.0 13.0 0.00 0.00 0.00 100 1009.4
20260903015921 93 250 6.0 13.0 0.00 0.00 0.00 100 1009.4
20260903015420 92 260 6.0 13.0 0.00 0.00 0.00 100 1009.4
20260903015136 92 268 7.0 13.0 0.00 0.00 0.00 100 1009.4
20260903014419 93 255 9.0 13.0 0.00 0.00 0.00 100 1009.4
20260903013918 92 251 5.0 11.0 0.00 0.00 0.00 100 1009.4
20260903013418 93 267 6.0 11.0 0.00 0.00 0.00 100 1009.4
20260903012917 93 246 8.0 12.0 0.00 0.00 0.00 100 1009.4
20260903012416 93 277 7.0 17.0 0.00 0.00 0.00 100 1009.4
20260903012140 94 261 7.0 17.0 0.00 0.00 0.00 100 1009.4
20260903011415 94 250 13.0 16.0 0.00 0.00 0.00 100 1009.4
20260903010914 94 250 11.0 14.0 0.00 0.00 0.00 100 1009.4
20260903010414 94 240 6.0 14.0 0.00 0.00 0.00 100 1009.4
20260903005913 94 243 7.0 14.0 0.00 0.00 0.00 100 1009.4
20260903005413 95 274 6.0 13.0 0.00 0.00 0.00 100 1009.4
20260903004912 94 243 10.0 13.0 0.00 0.00 0.00 100 1009.4
20260903004635 94 205 7.0 13.0 0.00 0.00 0.00 100 1009.4
20260903003911 95 255 0.0 13.0 0.00 0.00 0.00 100 1009.4
20260903003408 95 243 9.0 13.0 0.00 0.00 0.00 100 1009.4
20260903002907 94 267 9.0 14.0 0.00 0.00 0.00 100 1009.4
20260903001907 94 275 10.0 16.0 0.00 0.00 0.00 100 1009.4
20260903001406 95 251 5.0 18.0 0.00 0.00 0.00 100 1009.4
20260903000905 95 267 8.0 18.0 0.00 0.00 0.00 100 1009.4
20260903000405 95 239 13.0 17.0 0.00 0.00 0.00 100 1009.4
20260902235904 96 291 10.0 13.0 0.00 0.00 0.00 100 1009.4
20260902235403 95 209 6.0 13.0 0.00 0.00 0.00 100 1009.4
20260902234903 95 223 9.0 16.0 0.00 0.00 0.00 100 1009.4
20260902234623 95 254 4.0 16.0 0.00 0.00 0.00 100 1009.4
20260902233902 96 246 10.0 15.0 0.00 0.00 0.00 100 1009.4
20260902233401 96 275 8.0 13.0 0.00 0.00 0.00 100 1009.4
20260902232900 96 268 7.0 13.0 0.00 0.00 0.00 100 1009.4
20260902232359 95 288 7.0 15.0 0.00 0.00 0.00 100 1009.4
20260902231900 95 307 8.0 18.0 0.00 0.00 0.00 100 1009.4
20260902231359 95 247 5.0 18.0 0.00 0.00 0.00 100 1009.4
20260902230858 96 260 14.0 18.0 0.00 0.00 0.00 100 1009.4
20260902230402 96 257 10.0 17.0 0.00 0.00 0.00 100 1009.4
20260902225356 95 310 9.0 20.0 0.00 0.00 0.00 100 1009.4
20260902224856 96 253 10.0 20.0 0.00 0.00 0.00 100 1009.4
20260902224355 96 248 12.0 15.0 0.00 0.00 0.00 100 1009.4
20260902223855 96 241 10.0 16.0 0.00 0.00 0.00 100 1009.4
20260902223354 95 285 10.0 16.0 0.00 0.00 0.00 100 1009.4
20260902222853 97 264 9.0 16.0 0.00 0.00 0.00 100 1009.4
20260902222353 95 250 9.0 17.0 0.00 0.00 0.00 100 1009.4
20260902221852 96 254 15.0 17.0 0.00 0.00 0.00 100 1009.4
20260902221351 96 278 6.0 17.0 0.00 0.00 0.00 100 1009.4
20260902220851 94 220 9.0 17.0 0.00 0.00 0.00 100 1009.4
20260902220350 95 240 10.0 17.0 0.00 0.00 0.00 100 1009.4
20260902215850 96 225 9.0 17.0 0.00 0.00 0.00 100 1009.4
20260902215349 94 268 10.0 15.0 0.00 0.00 0.00 100 1009.4
20260902215113 94 282 9.0 19.0 0.00 0.00 0.00 100 1009.4
20260902214348 97 216 10.0 19.0 0.00 0.00 0.00 100 1009.4
20260902213847 94 271 12.0 19.0 0.00 0.00 0.00 100 1009.4
20260902213346 94 265 6.0 15.0 0.00 0.00 0.00 100 1009.4
20260902212846 95 246 4.0 17.0 0.00 0.00 0.00 100 1009.4
20260902211845 96 267 8.0 16.0 0.00 0.00 0.00 100 1009.4
20260902211345 96 264 9.0 19.0 0.00 0.00 0.00 100 1009.4
20260902210844 94 275 9.0 19.0 0.00 0.00 0.00 100 1009.4
20260902210343 93 295 10.0 13.0 0.00 0.00 0.00 100 1009.4
20260902205843 93 247 1.0 16.0 0.00 0.00 0.00 100 1009.4
20260902205342 93 255 9.0 18.0 0.00 0.00 0.00 100 1009.4
20260902204841 93 234 9.0 18.0 0.00 0.00 0.00 100 1009.4
20260902204341 93 248 12.0 18.0 0.00 0.00 0.00 100 1009.4
20260902203840 91 265 11.0 15.0 0.00 0.00 0.00 100 1009.4
20260902203339 94 243 9.0 15.0 0.00 0.00 0.00 100 1009.4
20260902202839 95 264 8.0 18.0 0.00 0.00 0.00 100 1009.4
20260902202339 95 274 7.0 20.0 0.00 0.00 0.00 100 1009.4
20260902201838 95 195 11.0 20.0 0.00 0.00 0.00 100 1009.4
20260902201557 97 205 6.0 13.0 0.00 0.00 0.00 100 1009.4
20260902200836 97 268 7.0 13.0 0.00 0.00 0.00 100 1009.4
20260902200328 96 295 3.0 9.0 0.00 0.00 0.00 100 1009.4
20260902195827 94 165 6.0 11.0 0.00 0.00 0.00 100 1009.4
20260902195327 97 192 1.0 15.0 0.00 0.00 0.00 100 1009.4
20260902194826 97 225 6.0 15.0 0.00 0.00 0.00 100 1009.4
20260902194325 96 247 9.0 15.0 0.00 0.00 0.00 100 1009.4
20260902193825 94 278 4.0 9.0 0.00 0.00 0.00 100 1009.4
20260902193324 93 212 0.0 9.0 0.00 0.00 0.00 100 1009.4
20260902192813 92 198 6.0 13.0 0.00 0.00 0.00 100 1009.4
20260902192312 93 153 3.0 13.0 0.00 0.00 0.00 100 1009.4
20260902191812 94 199 9.0 15.0 0.00 0.00 0.00 100 1009.4
20260902191311 94 140 9.0 15.0 0.00 0.00 0.00 100 1009.4
20260902190811 95 163 8.0 12.0 0.00 0.00 0.00 100 1009.4
20260902190529 92 144 2.0 14.0 0.00 0.00 0.00 100 1009.4
20260902190315 92 144 2.0 14.0 0.00 0.00 0.00 100 1009.4
20260902190030 92 246 9.0 14.0 0.00 0.00 0.00 100 1009.4
20260902185307 91 234 10.0 14.0 0.00 0.00 0.00 100 1009.4
20260902184807 91 177 8.0 11.0 0.00 0.00 0.00 100 1009.4
20260902184306 90 140 7.0 11.0 0.00 0.00 0.00 100 1009.4
20260902184024 90 167 6.0 10.0 0.00 0.00 0.00 100 1009.4
20260902183305 87 150 0.0 14.0 0.00 0.00 0.00 100 1009.4
20260902182804 88 140 5.0 14.0 0.00 0.00 0.00 100 1009.4
20260902182306 90 195 10.0 14.0 0.00 0.00 0.00 100 1009.4
20260902181803 91 237 4.0 11.0 0.00 0.00 0.00 100 1009.4
20260902181302 90 195 2.0 11.0 0.00 0.00 0.00 100 1009.4
20260902180801 88 154 8.0 13.0 0.00 0.00 0.00 100 1009.4
20260902180524 89 208 7.0 13.0 0.00 0.00 0.00 100 1009.4
20260902180321 89 208 7.0 13.0 0.00 0.00 0.00 100 1009.4
20260902180022 89 195 9.0 13.0 0.00 0.00 0.00 100 1009.4
20260902175519 90 194 0.0 14.0 0.00 0.00 0.00 100 1009.4
20260902174759 90 234 6.0 14.0 0.00 0.00 0.00 100 1009.4
20260902174258 91 257 9.0 14.0 0.00 0.00 0.00 100 1009.4
20260902173758 89 112 1.0 9.0 0.00 0.00 0.00 100 1009.4
20260902173518 81 153 4.0 9.0 0.00 0.00 0.00 100 1009.4
20260902173325 81 153 4.0 9.0 0.00 0.00 0.00 100 1009.4
20260902172252 87 171 5.0 9.0 0.00 0.00 0.00 100 1009.4
20260902172018 87 57 0.0 5.0 0.00 0.00 0.00 100 1009.4
20260902171249 86 236 0.0 5.0 0.00 0.00 0.00 100 1009.4
20260902170748 87 205 0.0 0.0 0.00 0.00 0.00 100 1009.4
20260902170459 89 205 0.0 8.0 0.00 0.00 0.00 100 1009.4
20260902165729 87 205 0.0 8.0 0.00 0.00 0.00 100 1009.4
20260902165208 89 167 2.0 8.0 0.00 0.00 0.00 100 1009.4
20260902164707 87 187 0.0 7.0 0.00 0.00 0.00 100 1009.4
20260902164207 88 156 1.0 6.0 0.00 0.00 0.00 100 1009.4
20260902163657 87 174 3.0 9.0 0.00 0.00 0.00 100 1009.4
20260902163157 87 187 0.0 9.0 0.00 0.00 0.00 100 1009.4
20260902162656 87 182 7.0 9.0 0.00 0.00 0.00 100 1009.4
20260902161917 86 223 2.0 6.0 0.00 0.00 0.00 100 1009.4
20260902161630 86 203 5.0 9.0 0.00 0.00 0.00 100 1009.4
20260902160646 83 229 4.0 9.0 0.00 0.00 0.00 100 1009.4
20260902160145 85 170 6.0 9.0 0.00 0.00 0.00 100 1009.4
20260902155904 83 236 0.0 6.0 0.00 0.00 0.00 100 1009.4
20260902155138 85 239 3.0 8.0 0.00 0.00 0.00 100 1009.4
20260902154637 84 215 5.0 8.0 0.00 0.00 0.00 100 1009.4
20260902154402 85 187 3.0 9.0 0.00 0.00 0.00 100 1009.4
20260902153636 85 226 0.0 9.0 0.00 0.00 0.00 100 1009.4
20260902153135 85 164 2.0 8.0 0.00 0.00 0.00 100 1009.4
20260902152634 84 139 4.0 7.0 0.00 0.00 0.00 100 1009.4
20260902152355 83 165 4.0 8.0 0.00 0.00 0.00 100 1009.4
20260902151633 83 184 5.0 9.0 0.00 0.00 0.00 100 1009.4
20260902151354 83 156 6.0 9.0 0.00 0.00 0.00 100 1009.4
20260902150632 82 212 4.0 9.0 0.00 0.00 0.00 100 1009.4
20260902150135 82 160 6.0 9.0 0.00 0.00 0.00 100 1009.4
20260902145631 82 189 5.0 9.0 0.00 0.00 0.00 100 1009.4
20260902145131 82 172 6.0 9.0 0.00 0.00 0.00 100 1009.4
20260902144630 81 208 6.0 9.0 0.00 0.00 0.00 100 1009.4
20260902144130 81 194 6.0 8.0 0.00 0.00 0.00 100 1009.4
20260902143134 78 246 4.0 8.0 0.00 0.00 0.00 100 1009.4
20260902142628 76 199 2.0 5.0 0.00 0.00 0.00 100 1009.4
20260902142127 76 230 4.0 5.0 0.00 0.00 0.00 100 1009.4
20260902141627 76 132 0.0 0.0 0.00 0.00 0.00 100 1009.4